Weather History for Tucson Davis Monthan, AZ

Change the Weather History Date:

Wednesday, November 7, 2012

  Actual Average Record
Temperature  
Mean Temperature 71 °F -  
Max Temperature 88 °F 76 °F 89 °F (2007)
Min Temperature 54 °F 49 °F 37 °F (1957)
Cooling Degree Days 6    
Growing Degree Days 21 (Base 50)    
Moisture  
Dew Point 26 °F    
Average Humidity 19    
Maximum Humidity 29    
Minimum Humidity 10    
Precipitation  
Precipitation 0.00 in - - ()
Sea Level Pressure  
Sea Level Pressure 29.94 in    
Wind  
Wind Speed 6 mph (SSE)    
Max Wind Speed 10 mph    
Max Gust Speed -    
Visibility 10 miles    
Events      
Averages and records for this station are not official NWS values.
T = Trace of Precipitation, MM = Missing Value Source: NWS Daily Summary

Daily Weather History Graph

Daily Weather History Graph

Search for Another Location

Airport:

Trip Planner

Search our weather history database for the weather conditions in past years. The results will help you decide how hot, cold, wet, or windy it might be!

Date:

Astronomy

Nov. 07, 2012 Rise Set
Actual Time 6:45 AM MST 5:28 PM MST
Civil Twilight 6:20 AM MST 5:53 PM MST
Nautical Twilight 5:51 AM MST 6:22 PM MST
Astronomical Twilight 5:22 AM MST 6:51 PM MST
Moon 12:06 AM MST (11/7) 1:17 PM MST (11/7)
Length of Visible Light 11h 33m
Length of Day
10h 42m
Last Quarter, 42% of the Moon is Illuminated
Nov 7
Last Quarter
Nov 13
New
Nov 20
First Quarter
Nov 28
Full
Dec 6
Last Quarter

Hourly Weather History & Observations

Time (MST) Temp. Dew Point Humidity Pressure Visibility Wind Dir Wind Speed Gust Speed Precip Events Conditions
12:58 AM 59.0 °F 22.5 °F 24% 30.00 in 10.0 mi SE 9.2 mph - N/A   Clear
1:58 AM 57.6 °F 22.5 °F 26% 30.00 in 10.0 mi Calm Calm - N/A   Clear
2:58 AM 56.3 °F 22.1 °F 27% 29.99 in 10.0 mi SE 6.9 mph - N/A   Clear
3:58 AM 57.7 °F 23.0 °F 26% 29.98 in 10.0 mi ESE 2.3 mph - N/A   Clear
4:58 AM 55.0 °F 22.6 °F 28% 30.00 in 10.0 mi SE 8.1 mph - N/A   Clear
5:58 AM 54.3 °F 22.1 °F 29% 30.01 in 10.0 mi SSE 10.4 mph - N/A   Clear
6:58 AM 56.5 °F 23.0 °F 27% 30.02 in 10.0 mi SE 8.1 mph - N/A   Clear
7:58 AM 62.4 °F 23.4 °F 22% 30.02 in 10.0 mi SE 10.4 mph - N/A   Clear
8:58 AM 69.4 °F 24.4 °F 18% 30.02 in 10.0 mi SE 10.4 mph - N/A   Clear
9:58 AM 74.8 °F 24.6 °F 15% 30.01 in 10.0 mi Variable 4.6 mph - N/A   Clear
10:58 AM 79.5 °F 25.0 °F 13% 29.98 in 10.0 mi SSE 3.5 mph - N/A   Clear
11:58 AM 84.6 °F 23.4 °F 11% 29.94 in 10.0 mi ESE 4.6 mph - N/A   Clear
12:58 PM 86.4 °F 24.3 °F 10% 29.89 in 10.0 mi NNE 3.5 mph - N/A   Clear
1:58 PM 88.2 °F 25.5 °F 10% 29.86 in 10.0 mi NW 3.5 mph - N/A   Clear
2:58 PM 87.8 °F 27.7 °F 11% 29.86 in 10.0 mi WNW 5.8 mph - N/A   Clear
3:58 PM 87.8 °F 27.5 °F 11% 29.83 in 10.0 mi Variable 4.6 mph - N/A   Clear
4:58 PM 86.2 °F 28.4 °F 12% 29.84 in 10.0 mi WNW 10.4 mph - N/A   Clear
5:58 PM 80.8 °F 27.9 °F 14% 29.87 in 10.0 mi WNW 8.1 mph - N/A   Partly Cloudy
6:58 PM 77.9 °F 28.8 °F 16% 29.88 in 10.0 mi West 5.8 mph - N/A   Mostly Cloudy
7:58 PM 74.8 °F 29.1 °F 19% 29.89 in 10.0 mi SW 5.8 mph - N/A   Partly Cloudy
8:58 PM 72.1 °F 29.3 °F 20% 29.89 in 10.0 mi SW 4.6 mph - N/A   Mostly Cloudy
9:58 PM 68.2 °F 29.3 °F 23% 29.90 in 10.0 mi South 5.8 mph - N/A   Partly Cloudy
10:58 PM 67.3 °F 29.7 °F 25% 29.89 in 10.0 mi South 6.9 mph - N/A   Clear
11:58 PM 66.2 °F 28.8 °F 25% 29.88 in 10.0 mi ESE 4.6 mph - N/A   Clear